TimeMDT,TemperatureF,Dew PointF,Humidity,Sea Level PressureIn,VisibilityMPH,Wind Direction,Wind SpeedMPH,Gust SpeedMPH,PrecipitationIn,Events,Conditions,WindDirDegrees,DateUTC
12:15 AM,64.4,48.2,56,30.35,10.0,Calm,Calm,-,N/A,,Clear,0,2013-07-17 06:15:00
12:55 AM,65.1,47.3,52,30.34,10.0,ENE,6.9,-,N/A,,Clear,60,2013-07-17 06:55:00
1:15 AM,65.1,47.5,53,30.35,10.0,NE,6.9,-,N/A,,Clear,40,2013-07-17 07:15:00
1:35 AM,64.8,47.7,54,30.35,10.0,East,3.5,-,N/A,,Clear,80,2013-07-17 07:35:00
1:55 AM,64.0,47.7,55,30.35,10.0,ENE,4.6,-,N/A,,Scattered Clouds,70,2013-07-17 07:55:00
2:15 AM,64.0,47.7,55,30.35,10.0,ENE,8.1,-,N/A,,Mostly Cloudy,70,2013-07-17 08:15:00
2:35 AM,63.7,47.8,56,30.35,10.0,ENE,9.2,-,N/A,,Mostly Cloudy,70,2013-07-17 08:35:00
2:55 AM,63.1,48.2,58,30.35,10.0,ENE,11.5,-,N/A,,Overcast,60,2013-07-17 08:55:00
3:15 AM,63.5,48.2,57,30.34,10.0,ENE,12.7,18.4,N/A,,Mostly Cloudy,70,2013-07-17 09:15:00
3:35 AM,63.7,48.0,57,30.34,10.0,NE,13.8,17.3,N/A,,Scattered Clouds,50,2013-07-17 09:35:00
3:55 AM,62.8,48.2,59,30.34,10.0,NNE,11.5,-,N/A,,Clear,20,2013-07-17 09:55:00
4:15 AM,63.3,47.8,57,30.34,10.0,NNE,12.7,17.3,N/A,,Mostly Cloudy,20,2013-07-17 10:15:00
4:35 AM,63.3,47.8,57,30.34,10.0,NE,12.7,21.9,N/A,,Scattered Clouds,40,2013-07-17 10:35:00
4:55 AM,62.8,47.8,58,30.34,10.0,NE,12.7,-,N/A,,Clear,50,2013-07-17 10:55:00
5:15 AM,61.5,48.2,62,30.35,10.0,NNE,12.7,-,N/A,,Clear,30,2013-07-17 11:15:00
5:35 AM,60.8,48.2,63,30.36,10.0,NE,11.5,-,N/A,,Clear,50,2013-07-17 11:35:00
5:55 AM,60.1,48.2,65,30.35,10.0,ENE,10.4,-,N/A,,Clear,60,2013-07-17 11:55:00
6:15 AM,59.5,48.2,66,30.36,10.0,NNE,9.2,-,N/A,,Clear,30,2013-07-17 12:15:00
6:35 AM,59.4,48.4,67,30.37,10.0,NNE,6.9,-,N/A,,Clear,30,2013-07-17 12:35:00
6:55 AM,60.3,48.6,65,30.37,10.0,NE,8.1,-,N/A,,Clear,50,2013-07-17 12:55:00
7:15 AM,62.6,48.9,61,30.37,10.0,NE,10.4,-,N/A,,Clear,40,2013-07-17 13:15:00
7:35 AM,64.9,49.1,56,30.38,10.0,ENE,8.1,-,N/A,,Clear,70,2013-07-17 13:35:00
7:55 AM,66.9,49.1,53,30.38,10.0,ENE,9.2,-,N/A,,Clear,60,2013-07-17 13:55:00
8:15 AM,67.8,48.7,50,30.38,10.0,ENE,9.2,-,N/A,,Clear,70,2013-07-17 14:15:00
8:35 AM,68.9,48.4,48,30.38,10.0,East,4.6,-,N/A,,Clear,100,2013-07-17 14:35:00
8:55 AM,69.1,48.2,47,30.38,10.0,East,5.8,-,N/A,,Clear,90,2013-07-17 14:55:00
9:15 AM,69.3,48.0,47,30.39,10.0,ESE,6.9,-,N/A,,Clear,120,2013-07-17 15:15:00
9:35 AM,70.3,47.3,44,30.38,10.0,SE,3.5,-,N/A,,Clear,130,2013-07-17 15:35:00
9:55 AM,71.1,46.0,41,30.38,10.0,East,5.8,-,N/A,,Clear,100,2013-07-17 15:55:00
10:15 AM,72.7,45.9,38,30.39,10.0,East,4.6,-,N/A,,Clear,90,2013-07-17 16:15:00
10:35 AM,74.1,45.9,36,30.38,10.0,ESE,4.6,-,N/A,,Clear,120,2013-07-17 16:35:00
10:55 AM,74.8,46.0,36,30.39,10.0,Calm,Calm,-,N/A,,Clear,0,2013-07-17 16:55:00
11:15 AM,75.6,45.9,35,30.39,10.0,Calm,Calm,-,N/A,,Clear,0,2013-07-17 17:15:00
11:35 AM,76.8,45.5,33,30.39,10.0,NE,4.6,-,N/A,,Clear,50,2013-07-17 17:35:00
11:55 AM,77.7,44.8,31,30.39,10.0,West,6.9,-,N/A,,Clear,270,2013-07-17 17:55:00
12:15 PM,78.3,44.4,30,30.39,10.0,Calm,Calm,-,N/A,,Clear,0,2013-07-17 18:15:00
12:35 PM,79.7,44.2,28,30.38,10.0,WSW,4.6,-,N/A,,Clear,240,2013-07-17 18:35:00
12:55 PM,80.1,44.4,28,30.38,10.0,SW,3.5,-,N/A,,Clear,220,2013-07-17 18:55:00
1:15 PM,81.3,44.4,27,30.37,10.0,ESE,4.6,-,N/A,,Clear,120,2013-07-17 19:15:00
1:35 PM,81.5,44.2,27,30.37,10.0,North,6.9,-,N/A,,Scattered Clouds,10,2013-07-17 19:35:00
1:55 PM,80.8,44.4,28,30.36,10.0,NE,8.1,-,N/A,,Scattered Clouds,40,2013-07-17 19:55:00
2:15 PM,82.8,44.1,26,30.35,10.0,Calm,Calm,-,N/A,,Scattered Clouds,0,2013-07-17 20:15:00
2:35 PM,81.9,43.5,26,30.35,10.0,NW,3.5,-,N/A,,Scattered Clouds,320,2013-07-17 20:35:00
2:55 PM,80.8,43.3,27,30.35,10.0,North,3.5,-,N/A,,Overcast,350,2013-07-17 20:55:00
3:15 PM,81.1,42.8,26,30.35,10.0,NNW,6.9,-,N/A,,Mostly Cloudy,330,2013-07-17 21:15:00
3:35 PM,82.2,43.0,25,30.34,10.0,West,23.0,27.6,N/A,,Scattered Clouds,270,2013-07-17 21:35:00
3:55 PM,79.7,46.8,31,30.34,10.0,West,21.9,28.8,N/A,,Clear,280,2013-07-17 21:55:00
4:15 PM,77.5,47.1,34,30.34,10.0,West,23.0,27.6,N/A,,Clear,280,2013-07-17 22:15:00
4:35 PM,77.2,44.6,31,30.34,10.0,WNW,19.6,27.6,N/A,,Clear,290,2013-07-17 22:35:00
4:55 PM,77.9,40.1,26,30.34,10.0,WNW,9.2,-,N/A,,Scattered Clouds,290,2013-07-17 22:55:00
5:15 PM,77.0,41.7,28,30.35,10.0,South,12.7,20.7,N/A,,Mostly Cloudy,190,2013-07-17 23:15:00
5:35 PM,70.3,51.6,51,30.36,10.0,South,15.0,19.6,N/A,,Scattered Clouds,190,2013-07-17 23:35:00
5:55 PM,69.1,51.4,53,30.37,10.0,South,13.8,-,N/A,,Scattered Clouds,180,2013-07-17 23:55:00
6:15 PM,70.0,50.5,50,30.37,10.0,South,12.7,19.6,N/A,,Scattered Clouds,180,2013-07-18 00:15:00
6:35 PM,70.3,49.3,47,30.37,10.0,South,10.4,-,N/A,,Mostly Cloudy,180,2013-07-18 00:35:00
6:55 PM,69.1,49.3,49,30.37,10.0,South,11.5,-,N/A,,Scattered Clouds,190,2013-07-18 00:55:00
7:15 PM,69.4,48.6,47,30.37,10.0,South,9.2,-,N/A,,Clear,180,2013-07-18 01:15:00
7:35 PM,71.2,46.9,42,30.37,10.0,SSW,10.4,-,N/A,,Scattered Clouds,200,2013-07-18 01:35:00
7:55 PM,70.9,46.8,42,30.37,10.0,SSW,12.7,-,N/A,,Scattered Clouds,210,2013-07-18 01:55:00
8:15 PM,70.5,47.1,43,30.37,10.0,SW,10.4,-,N/A,,Mostly Cloudy,220,2013-07-18 02:15:00
8:35 PM,70.2,46.9,43,30.38,10.0,SW,9.2,-,N/A,,Scattered Clouds,220,2013-07-18 02:35:00
8:55 PM,68.9,46.9,45,30.37,10.0,WSW,8.1,-,N/A,,Clear,240,2013-07-18 02:55:00
9:15 PM,67.3,47.3,49,30.37,10.0,WSW,8.1,-,N/A,,Clear,250,2013-07-18 03:15:00
9:35 PM,66.4,47.7,51,30.38,10.0,WSW,5.8,-,N/A,,Clear,240,2013-07-18 03:35:00
9:55 PM,65.5,47.7,53,30.40,10.0,NW,3.5,-,N/A,Thunderstorm,Clear,310,2013-07-18 03:55:00
10:15 PM,65.1,47.7,53,30.41,10.0,NNW,10.4,-,N/A,,Clear,330,2013-07-18 04:15:00
10:35 PM,64.4,50.0,59,30.41,10.0,NNW,9.2,-,N/A,,Clear,340,2013-07-18 04:35:00
10:55 PM,64.0,51.8,64,30.40,10.0,North,9.2,-,N/A,,Clear,350,2013-07-18 04:55:00
11:35 PM,63.9,50.2,61,30.40,10.0,North,9.2,-,N/A,,Clear,360,2013-07-18 05:35:00
11:55 PM,62.4,49.1,62,30.39,10.0,North,11.5,-,N/A,,Clear,360,2013-07-18 05:55:00